THORAD AGENA D DEB, 42520

Orbit data source: Space-Track

THORAD AGENA D DEB, 42520 is space debris in SSO originally from a launch on Wed, 08 Apr 1970 UTC launched from the Air Force Western Test Range (AFWTR). Debris objects in space refer to the collection of defunct objects orbiting the Earth. Examples of debris include non-operational satellites, rocket bodies, and fragments generated from explosions, collisions, or faulty payload assembly.

Loading next visibility...
Identifier
42520, 1970-025SA
Orbit
SSO
Country
Flag of USUS
Related business
Manufacturer
Unknown
Mission
Spacecraft
Bus & Motor
Unknown
Mass
Unknown
Launch date (UTC)
1970-04-08 (56 years ago)
Launch vehicle
Unknown
Launch site
Air Force Western Test Range (AFWTR)
Object type
Payload
Rocket body
Debris
Shape & HBR
Unknown shape, 0.1 m
Radar Cross Section
Small (<0.1 m²)

Expand to show TLE details & history
Last TLE update: 2 weeks ago

TLE from 2 weeks ago
0 THORAD AGENA D DEB
1 42520U 70025SA  26111.40840987  .00000916  00000-0  75661-3 0  9992
2 42520 100.3067 331.8710 0093607 247.7730 111.3475 13.90214005619250
Epoch: 2026-04-21T09:48Z
TLE epoch observation values (Epoch: 2026-04-21T09:48:06.612Z)
Latitude
0.00001°
Longitude
-24.64117°
Altitude
956.152 km
Speed
7.361 km/s
True Right ascension
22h 07m 29s
True Declination
0° 00' 00"
Sunlit
Object was in daylight at epoch
Visualization orbit readout
Latitude
Unknown
Longitude
Unknown
Altitude
Unknown
Speed
Unknown
Apparent Right ascension
Unknown
Apparent Declination
Unknown
Sunlit
N/A
Visualization observer readout
Local Sidereal Time
17:31:14
Azimuth
Unknown
Elevation
Unknown
Doppler factor
Unknown
Orbital elements
Apogee altitude
993.525 km
Perigee altitude
856.797 km
Semi-major axis
7,303.298 km
Eccentricity
0.00936
Inclination
100.3067°
RAAN
331.871°
Arg. of periapsis
247.773°
True anomaly
112.34227°
Mean anomaly
111.3475°
Eccentric anomaly
111.84532°
Mean motion
3.47748 °/min
Orbital period
103.52 mins
BSTAR
0.00075661

Documentation

Showing up to 5 results
|